Willmar, MN

4:05 AM CDT on May 24, 2018 (GMT -0500)
Willmar

Weather History for KBDH - June, 2012

Change the Weather History Date:

Friday, June 15, 2012

  Actual Average (KBBB) Record (KBBB)
Temperature  
Mean Temperature 70 °F -  
Max Temperature 80 °F 75 °F 92 °F (1959)
Min Temperature 60 °F 55 °F 40 °F (1968)
Cooling Degree Days 5    
Growing Degree Days 20 (Base 50)    
Moisture  
Dew Point 60 °F    
Average Humidity 73    
Maximum Humidity 100    
Minimum Humidity 42    
Precipitation  
Precipitation 0.00 in - - ()
Sea Level Pressure  
Sea Level Pressure 29.98 in    
Wind  
Wind Speed 3 mph (East)    
Max Wind Speed 10 mph    
Max Gust Speed -    
Visibility 8 miles    
Events Fog , Rain    
Averages and records for this station are not official NWS values.
T = Trace of Precipitation, MM = Missing Value Source: NWS Daily Summary

Daily Weather History Graph

Daily Weather History Graph

Search for Another Location

Airport or City:

Astronomy

Jun. 15, 2012 Rise Set
Actual Time 5:32 AM CDT 9:09 PM CDT
Civil Twilight 4:55 AM CDT 9:47 PM CDT
Nautical Twilight 4:05 AM CDT 10:37 PM CDT
Astronomical Twilight 2:59 AM CDT 11:43 PM CDT
Moon 2:53 AM CDT (6/15) 5:45 PM CDT (6/15)
Length of Visible Light 16h 52m
Length of Day
15h 37m
Waning Crescent, 13% of the Moon is Illuminated
Jun 15
Waning Crescent
Jun 19
New
Jun 26
First Quarter
Jul 3
Full
Jul 10
Last Quarter

Hourly Weather History & Observations

Time (CDT) Temp. Heat Index Dew Point Humidity Pressure Visibility Wind Dir Wind Speed Gust Speed Precip Events Conditions
12:14 AM 66.2 °F - 59.0 °F 78% 29.92 in 10.0 mi East 3.5 mph - N/A   Clear
12:34 AM 64.4 °F - 57.2 °F 77% 29.92 in 10.0 mi Calm Calm - N/A   Clear
12:54 AM 66.2 °F - 59.0 °F 78% 29.91 in 10.0 mi Calm Calm - N/A   Clear
1:13 AM 62.6 °F - 57.2 °F 82% 29.90 in 10.0 mi Calm Calm - N/A   Clear
1:34 AM 60.8 °F - 59.0 °F 94% 29.91 in 10.0 mi Calm Calm - N/A   Clear
2:14 AM 60.8 °F - 59.0 °F 94% 29.93 in 10.0 mi ESE 5.8 mph - N/A   Scattered Clouds
2:34 AM 64.4 °F - 64.4 °F 100% 29.93 in 5.0 mi Calm Calm - N/A   Mostly Cloudy
2:54 AM 66.2 °F - 66.2 °F 100% 29.92 in 0.2 mi SE 3.5 mph - N/A   Drizzle
3:13 AM 64.4 °F - 64.4 °F 100% 29.93 in 0.2 mi SE 8.1 mph - N/A   Drizzle
3:34 AM 64.4 °F - 64.4 °F 100% 29.92 in 0.2 mi SE 4.6 mph - N/A   Drizzle
3:54 AM 64.4 °F - 64.4 °F 100% 29.92 in 0.2 mi Calm Calm - N/A   Drizzle
4:14 AM 64.4 °F - 64.4 °F 100% 29.93 in 0.2 mi Calm Calm - N/A   Light Drizzle
4:34 AM 64.4 °F - 64.4 °F 100% 29.93 in 0.2 mi Calm Calm - N/A Rain Light Rain
4:54 AM 64.4 °F - 64.4 °F 100% 29.93 in 0.2 mi Calm Calm - N/A   Overcast
5:14 AM 62.6 °F - 62.6 °F 100% 29.93 in 0.2 mi Calm Calm - N/A Fog Fog
5:34 AM 62.6 °F - 62.6 °F 100% 29.94 in 0.2 mi Calm Calm - N/A Fog Fog
5:54 AM 62.6 °F - 62.6 °F 100% 29.94 in 0.2 mi Calm Calm - N/A Fog Fog
6:14 AM 60.8 °F - 60.8 °F 100% 29.95 in 0.2 mi Calm Calm - N/A Fog Fog
6:34 AM 60.8 °F - 60.8 °F 100% 29.96 in 0.5 mi Calm Calm - N/A Fog Fog
6:54 AM 62.6 °F - 62.6 °F 100% 29.98 in 1.5 mi Calm Calm - N/A   Overcast
7:14 AM 62.6 °F - 62.6 °F 100% 29.98 in 2.5 mi WNW 3.5 mph - N/A   Scattered Clouds
7:34 AM 62.6 °F - 62.6 °F 100% 29.98 in 4.0 mi Calm Calm - N/A   Clear
7:54 AM 64.4 °F - 64.4 °F 100% 29.98 in 0.2 mi NW 3.5 mph - N/A Fog Fog
8:14 AM 64.4 °F - 64.4 °F 100% 29.98 in 1.2 mi NW 3.5 mph - N/A   Overcast
8:34 AM 64.4 °F - 64.4 °F 100% 29.99 in 7.0 mi NW 3.5 mph - N/A   Scattered Clouds
8:54 AM 64.4 °F - 64.4 °F 100% 30.00 in 10.0 mi Calm Calm - N/A   Clear
9:14 AM 64.4 °F - 64.4 °F 100% 30.01 in 10.0 mi Calm Calm - N/A   Clear
9:34 AM 68.0 °F - 64.4 °F 88% 30.02 in 10.0 mi Calm Calm - N/A   Clear
9:54 AM 71.6 °F - 64.4 °F 78% 30.02 in 10.0 mi Calm Calm - N/A   Clear
10:14 AM 71.6 °F - 62.6 °F 73% 30.02 in 10.0 mi Calm Calm - N/A   Clear
10:34 AM 73.4 °F - 60.8 °F 65% 30.01 in 10.0 mi Calm Calm - N/A   Clear
10:54 AM 75.2 °F - 60.8 °F 61% 30.01 in 10.0 mi NW 3.5 mph - N/A   Clear
11:14 AM 75.2 °F - 60.8 °F 61% 30.01 in 10.0 mi NNW 5.8 mph - N/A   Clear
11:34 AM 75.2 °F - 59.0 °F 57% 30.01 in 10.0 mi North 4.6 mph - N/A   Clear
12:14 PM 75.2 °F - 57.2 °F 53% 30.02 in 10.0 mi NNE 4.6 mph - N/A   Clear
12:34 PM 75.2 °F - 57.2 °F 53% 30.02 in 10.0 mi Calm Calm - N/A   Clear
12:54 PM 77.0 °F - 57.2 °F 50% 30.02 in 10.0 mi Calm Calm - N/A   Clear
1:14 PM 78.8 °F - 60.8 °F 54% 30.02 in 10.0 mi East 4.6 mph - N/A   Clear
1:34 PM 78.8 °F - 57.2 °F 47% 30.02 in 10.0 mi East 4.6 mph - N/A   Clear
1:53 PM 78.8 °F - 57.2 °F 47% 30.02 in 10.0 mi ENE 6.9 mph - N/A   Clear
2:14 PM 78.8 °F - 55.4 °F 44% 30.01 in 10.0 mi NNE 8.1 mph - N/A   Clear
2:34 PM 78.8 °F - 55.4 °F 44% 30.01 in 10.0 mi ENE 5.8 mph - N/A   Clear
2:54 PM 78.8 °F - 55.4 °F 44% 30.01 in 10.0 mi ENE 5.8 mph - N/A   Clear
3:14 PM 78.8 °F - 55.4 °F 44% 30.01 in 10.0 mi East 6.9 mph - N/A   Clear
3:34 PM 80.6 °F 80.5 °F 55.4 °F 42% 30.01 in 10.0 mi East 9.2 mph - N/A   Clear
3:54 PM 78.8 °F - 55.4 °F 44% 30.00 in 10.0 mi ENE 6.9 mph - N/A   Clear
4:14 PM 78.8 °F - 57.2 °F 47% 30.00 in 10.0 mi ENE 5.8 mph - N/A   Clear
4:34 PM 78.8 °F - 57.2 °F 47% 30.00 in 10.0 mi NE 5.8 mph - N/A   Clear
4:54 PM 78.8 °F - 57.2 °F 47% 30.00 in 10.0 mi ESE 6.9 mph - N/A   Clear
5:14 PM 80.6 °F 80.8 °F 57.2 °F 45% 30.00 in 10.0 mi SE 8.1 mph - N/A   Clear
5:34 PM 80.6 °F 80.8 °F 57.2 °F 45% 29.99 in 10.0 mi SE 10.4 mph - N/A   Clear
5:54 PM 78.8 °F - 57.2 °F 47% 29.99 in 10.0 mi East 8.1 mph - N/A   Clear
6:14 PM 78.8 °F - 57.2 °F 47% 29.99 in 10.0 mi ESE 8.1 mph - N/A   Clear
6:34 PM 78.8 °F - 57.2 °F 47% 29.99 in 10.0 mi ESE 8.1 mph - N/A   Clear
6:54 PM 77.0 °F - 57.2 °F 50% 29.99 in 10.0 mi East 8.1 mph - N/A   Clear
7:14 PM 77.0 °F - 57.2 °F 50% 29.99 in 10.0 mi East 8.1 mph - N/A   Clear
7:34 PM 77.0 °F - 59.0 °F 54% 30.00 in 10.0 mi ESE 10.4 mph - N/A   Clear
7:54 PM 75.2 °F - 60.8 °F 61% 29.99 in 10.0 mi East 8.1 mph - N/A   Clear
8:14 PM 75.2 °F - 59.0 °F 57% 29.98 in 10.0 mi ESE 9.2 mph - N/A   Clear
8:34 PM 75.2 °F - 59.0 °F 57% 29.98 in 10.0 mi East 6.9 mph - N/A   Clear
8:54 PM 73.4 °F - 59.0 °F 61% 29.98 in 10.0 mi East 6.9 mph - N/A   Clear
9:34 PM 71.6 °F - 60.8 °F 69% 30.00 in 5.0 mi East 3.5 mph - N/A   Haze
9:54 PM 69.8 °F - 59.0 °F 68% 30.01 in 10.0 mi ENE 3.5 mph - N/A   Clear
10:14 PM 68.0 °F - 60.8 °F 78% 30.01 in 10.0 mi ENE 4.6 mph - N/A   Clear
10:34 PM 66.2 °F - 60.8 °F 83% 30.00 in 10.0 mi NE 4.6 mph - N/A   Clear
10:54 PM 66.2 °F - 60.8 °F 83% 29.99 in 10.0 mi East 6.9 mph - N/A   Clear
11:14 PM 66.2 °F - 60.8 °F 83% 30.00 in 10.0 mi East 3.5 mph - N/A   Clear
11:34 PM 68.0 °F - 60.8 °F 78% 30.00 in 10.0 mi East 3.5 mph - N/A   Clear
11:54 PM 64.4 °F - 59.0 °F 83% 29.99 in 10.0 mi Calm Calm - N/A   Clear